Tracking 18942 objects as of 18-Jan-2018
HD Live streaming from Space Station
objects crossing your sky now

ORBCOMM FM 107

Track ORBCOMM FM 107 now!
10-day predictions
ORBCOMM FM 107 is classified as:


NORAD ID: 40087
Int'l Code: 2014-040B
Perigee: 715.8 km
Apogee: 719.4 km
Inclination: 47.0 °
Period: 99.0 minutes
Semi major axis: 7088 km
RCS: Unknown
Launch date: July 14, 2014
Source: United States (US)
Launch site: AIR FORCE EASTERN TEST RANGE (AFETR)
aabbcc
Your satellite tracking list
Your tracking list is empty




NASA's NSSDC Master Catalog

Two Line Element Set (TLE):
1 40087U 14040B   18017.52553385 +.00000024 +00000-0 +44024-4 0  9995
2 40087 047.0057 148.5719 0002556 189.2094 170.8744 14.54666033186767
Source of the keplerian elements: AFSPC